Weather in Troyetskiy

Russia / Volgograd Oblast     50°21′49″N   42°51′57″E
temp.,
°C
wind,
m/s
gust,
m/s
humid.,
%
clouds,
%
prec.,
mm/h
press.,
hPa
HPBL,
m
31 july, sat
sat3100:00+20sw3384100 1.8 100852
03:00+20sw3383100 2.1 100960
06:00+22wsw257799 0.1 1009152
09:00+26wsw346290 0.1 1009595
12:00+30w4644100 0.0 10091758
15:00+31w463961 0.1 10091353
18:00+29n44489 0.0 1009416
21:00+23ene227171 0.0 101133
1 august, sun
sun100:00+23e226415 0.0 101128
03:00+22ese11685 0.0 101211
06:00+23ne2266100 0.0 101355
09:00+28ne334993 0.0 1013440
12:00+29ene1343100 0.0 1013662
15:00+33n223118 0.0 10121090
18:00+32n33321 0.0 1011407
21:00+25nne49565 0.0 1012123
2 august, mon
mon200:00+24ene48542 0.0 1012109
03:00+22ese48464 0.0 1012123
06:00+22se36515 0.0 1012106
09:00+32ssw34235 0.0 1012595
12:00+37ssw24155 0.0 10113991
15:00+38sse041486 0.0 10094233
18:00+34ese452399 0.0 1009347
21:00+29s34295 0.0 100937
3 august, tue
tue300:00+26s463420 0.0 100978
03:00+25s473922 0.0 100995
06:00+25sw37395 0.0 1009155
09:00+31nnw0036100 0.0 1009440
12:00+36wsw35229 0.0 10082938
15:00+34nnw552957 0.0 1007823
18:00+30wnw453982 0.2 1006185
21:00+20nne5108717 2.4 1010271
4 august, wed
wed400:00+19sw3392100 1.1 101257
03:00+19nw4890100 1.2 1011192
06:00+19n3686100 0.0 1013259
09:00+23nnw346698 0.0 1014613
12:00+28nw45420 0.0 10141844
15:00+30nnw553134 0.0 10132821
18:00+28n5534100 0.0 10131918
21:00+22n4105091 0.0 1015214